Theta_e
318 318 318 318 316 315 314 314 314 314 314 315 315 315 315 315 315 315 315 313 313 314 313 313 312 312 316 309 307 326 338 329 324 318 314 311 309 309 306 308 309 306 308 310 310 310 312
318 318 318 317 316 315 314 314 314 314 314 314 314 314 314 314 314 315 315 313 313 313 313 314 313 313 313 301 312 322 326 323 319 316 313 314 311 312 308 307 307 309 309 308 311 310 310
318 318 317 316 316 315 315 314 314 314 314 314 314 314 314 313 314 314 314 314 312 313 313 314 314 315 311 307 317 327 326 321 321 317 313 314 314 310 310 306 311 309 306 309 308 309 311
317 317 316 316 316 315 315 315 314 314 314 314 314 313 313 313 313 314 313 313 311 312 314 314 315 316 306 313 323 326 323 319 318 318 317 316 316 312 312 312 309 306 306 303 309 308 310
316 316 316 316 316 316 314 314 314 314 314 314 314 313 313 313 313 313 313 313 313 313 314 315 315 313 306 315 311 317 322 315 316 316 316 315 315 310 312 306 302 304 299 302 303 311 310
315 315 315 315 315 315 314 314 314 313 314 314 314 314 313 312 313 313 313 313 313 315 316 318 317 309 312 310 316 315 319 319 313 314 312 311 310 306 307 305 296 298 298 301 302 307 308
313 313 313 313 313 313 313 312 312 312 312 313 313 313 313 312 312 312 312 317 314 311 314 310 312 309 313 320 321 317 319 317 317 312 305 308 304 301 305 306 305 304 303 303 306 307 307
311 311 312 312 312 311 311 311 311 311 311 311 311 311 312 312 312 312 311 309 311 313 308 315 312 314 316 321 312 315 319 312 311 306 307 304 301 306 309 307 305 303 302 303 305 307 307
311 311 310 310 310 310 310 310 310 310 310 311 310 310 311 311 311 311 311 311 315 316 306 308 315 313 315 317 312 310 315 312 309 305 304 302 304 309 307 304 302 303 302 303 303 306 308
309 309 309 309 309 310 309 310 310 310 310 310 310 310 311 310 308 313 307 312 316 315 301 305 308 312 315 316 310 316 315 311 307 303 304 304 308 306 305 303 304 301 306 305 304 306 300
310 310 309 309 309 309 309 310 309 309 309 309 309 309 310 309 308 307 311 315 317 312 292 308 311 320 316 312 313 312 317 313 306 305 306 303 304 304 303 304 306 303 306 306 306 307 307
309 309 309 309 309 309 309 309 309 309 309 309 309 309 309 309 310 312 315 316 313 301 291 305 312 309 309 311 312 314 313 316 314 307 308 306 310 308 307 308 308 308 304 304 308 306 299
308 309 309 309 309 309 309 308 309 309 309 309 309 308 307 308 306 315 314 312 301 295 304 305 307 309 308 307 309 310 308 307 304 300 300 304 306 310 309 306 309 306 303 297 297 297 298
308 308 309 309 309 309 309 308 308 308 309 309 308 307 310 312 313 314 312 304 294 299 301 311 310 308 305 308 308 308 306 303 307 305 301 299 298 306 308 307 304 304 304 299 292 294 298
308 308 308 308 309 309 308 308 308 308 308 308 306 312 312 315 315 314 306 295 297 301 304 306 309 304 305 307 308 307 306 304 306 307 302 301 301 307 307 308 308 303 300 306 300 300 298
308 308 308 308 308 308 308 308 308 308 308 307 303 304 314 317 315 311 303 296 301 307 308 310 303 307 303 305 305 306 305 307 305 308 312 307 301 305 303 307 306 306 309 299 302 294 292
308 308 308 309 308 308 308 308 308 308 307 306 304 307 313 317 314 307 298 299 304 310 311 307 306 306 305 305 306 305 305 308 308 308 311 309 305 303 306 305 303 302 302 304 304 301 296
307 308 308 308 308 308 308 308 308 308 307 306 305 305 315 316 304 305 301 302 304 308 310 308 310 309 307 307 305 305 305 308 312 310 305 309 307 301 303 305 306 307 306 306 300 299 301
307 307 308 308 308 308 308 308 308 307 307 305 309 311 316 316 301 301 305 303 307 307 307 305 304 310 311 307 304 307 307 307 309 310 308 309 304 300 299 302 304 303 304 306 306 307 301
307 307 308 308 308 308 308 308 308 307 307 309 310 306 313 315 314 306 303 302 303 310 309 309 308 311 309 306 308 304 305 306 308 309 310 314 307 302 298 300 303 301 302 303 305 301 301
307 308 308 308 308 309 309 308 308 307 307 310 312 306 308 305 307 308 308 305 303 303 309 311 309 308 307 304 305 306 307 305 307 305 308 311 304 305 304 301 301 302 301 301 301 302 299
307 308 308 308 308 309 309 309 308 307 306 313 307 304 308 309 310 308 306 305 304 305 307 305 307 307 308 305 306 304 307 308 305 307 306 309 305 305 301 301 300 299 299 300 300 301 301
307 307 308 308 308 308 309 309 309 308 309 310 308 311 309 305 307 306 304 304 305 307 308 308 309 308 305 305 309 311 312 312 311 308 308 307 303 302 298 300 299 297 301 302 302 304 304
307 307 308 307 308 309 309 309 309 308 307 311 307 305 309 301 303 302 305 307 306 308 306 308 310 308 308 313 313 314 313 312 311 309 312 307 306 303 298 299 290 301 303 303 302 303 304
306 306 307 308 308 309 309 309 309 309 308 312 311 309 311 304 306 304 306 308 309 310 308 308 310 312 312 309 305 302 303 305 305 308 308 309 307 301 297 297 299 300 301 302 301 301 304
306 305 306 307 307 309 309 309 310 309 308 312 312 312 313 309 306 308 307 309 306 307 307 310 315 317 312 307 305 296 297 299 300 303 309 308 309 302 299 293 291 301 302 305 305 298 302
305 305 305 306 307 308 309 309 310 310 309 309 312 313 313 310 312 312 307 307 310 309 309 310 311 312 315 307 301 299 298 302 297 298 301 303 303 298 296 297 297 301 302 305 296 294 300
305 305 305 305 306 307 309 309 310 310 309 308 312 313 310 313 313 314 314 311 310 310 306 311 310 311 311 304 302 303 302 303 301 301 300 299 299 300 300 296 292 302 300 297 296 300 301
304 304 305 306 307 307 308 309 309 309 309 308 312 314 313 312 314 316 317 317 316 315 312 314 311 310 311 307 308 308 303 306 301 298 303 299 301 300 298 295 300 303 300 300 300 300 299
Wind_Speed
19 19 19 19 19 20 19 19 19 18 18 17 17 17 16 16 16 14 12 10 9 7 5 5 5 4 7 9 11 11 13 20 20 21 22 22 22 21 18 16 12 18 15 11 16 12 12
19 19 19 19 19 19 19 19 19 18 18 17 17 17 16 16 16 15 12 9 9 6 5 6 4 5 8 13 6 5 10 19 19 22 22 21 18 19 12 11 17 7 17 19 12 16 18
19 19 19 19 18 19 19 19 18 18 18 17 17 17 16 16 16 16 12 8 7 6 5 5 5 8 10 16 3 6 12 15 17 21 20 17 12 16 7 10 14 16 11 13 19 16 11
19 19 19 18 17 18 18 18 18 18 17 17 17 17 16 17 17 16 15 11 8 6 6 5 5 7 10 2 7 11 11 9 16 12 15 12 8 17 9 3 4 12 16 14 17 18 15
20 20 19 18 18 17 18 19 19 19 19 18 16 16 16 16 17 16 15 13 7 6 5 7 8 6 7 7 12 15 11 15 15 11 12 9 9 13 12 12 9 10 10 15 8 17 12
22 21 21 20 19 18 18 19 19 19 19 19 17 16 15 16 16 15 13 11 8 10 6 7 4 7 9 10 11 17 16 13 17 16 14 15 11 11 13 14 12 13 13 12 12 14 14
23 22 22 22 22 20 20 20 20 21 21 20 20 17 16 16 15 11 12 6 7 8 11 11 7 7 12 11 15 15 19 19 16 16 15 16 17 19 20 15 10 10 16 13 8 12 18
22 23 23 23 23 22 22 21 21 22 21 20 21 20 19 17 16 15 8 8 9 8 8 23 18 19 6 8 9 16 22 16 21 20 17 13 20 18 13 13 13 10 12 11 8 6 11
22 22 23 23 23 22 22 22 22 21 21 19 19 19 19 18 19 5 9 12 7 8 9 10 17 16 16 14 10 22 24 14 21 20 20 15 15 14 16 13 14 15 13 12 8 10 8
22 23 23 23 22 21 23 23 22 22 21 21 19 19 18 18 11 3 8 7 7 7 7 13 11 10 14 14 13 23 25 16 15 20 19 19 9 19 17 17 16 16 17 9 8 14 13
23 23 23 22 21 22 22 23 24 23 22 20 20 20 17 6 13 7 4 6 8 6 7 13 11 7 15 21 17 26 23 16 17 17 16 13 15 12 20 16 16 12 4 13 11 14 5
23 24 24 22 24 23 23 23 23 24 22 21 22 19 15 12 10 13 7 5 6 9 8 10 11 13 18 21 21 24 22 20 13 14 18 10 5 16 15 16 15 9 8 9 10 9 12
24 25 25 24 24 23 23 23 24 24 24 23 24 24 17 10 7 2 7 6 9 10 5 10 12 19 22 19 15 23 23 21 14 16 15 16 14 13 6 11 14 16 15 10 11 9 1
25 25 25 23 23 23 23 23 24 24 25 25 26 30 12 10 15 8 8 10 12 8 7 3 9 20 20 20 17 24 25 21 21 18 13 15 17 14 13 14 13 21 18 8 14 12 8
25 25 25 26 24 24 24 24 24 25 26 26 29 7 6 5 10 11 12 15 10 7 11 5 10 19 15 14 10 18 18 22 20 17 8 13 5 10 8 6 15 13 11 5 4 4 3
26 26 26 26 25 25 25 26 26 27 27 26 7 5 2 7 11 10 11 11 14 4 4 8 11 6 17 18 15 16 17 20 22 19 16 6 9 5 8 8 4 10 11 8 8 7 13
25 26 26 25 25 25 26 27 27 28 27 27 3 4 6 9 10 9 10 14 11 5 1 4 3 6 2 11 14 18 18 7 18 22 17 7 4 9 6 9 13 7 9 6 6 5 6
26 26 26 26 25 26 26 26 28 29 28 6 4 4 7 7 9 8 8 12 1 11 2 5 5 6 4 4 4 3 9 5 6 11 17 11 8 10 11 5 5 5 10 16 10 13 9
25 26 26 26 26 26 27 27 28 30 25 4 4 6 5 6 4 7 5 10 2 7 4 2 4 3 2 4 5 6 6 3 7 6 8 8 5 11 8 6 4 7 5 7 5 6 8
25 25 26 26 26 27 28 28 28 30 25 3 5 5 6 4 5 2 7 6 8 5 4 2 5 4 6 6 2 0 4 3 6 7 3 1 2 7 7 1 7 7 9 9 11 12 14
25 26 26 25 26 27 28 29 30 31 30 6 5 5 3 6 11 10 8 3 9 6 4 4 4 4 5 5 9 14 14 6 3 4 1 4 14 10 5 7 9 9 8 9 12 13 11
26 25 26 26 26 27 27 27 29 32 33 5 5 5 3 4 8 10 10 11 10 7 6 3 6 5 4 7 6 8 8 10 6 8 9 4 5 9 9 6 13 7 0 2 1 1 2
24 25 25 25 25 26 26 26 26 27 22 6 4 2 6 8 8 9 12 11 9 3 10 7 7 10 11 8 7 8 7 7 3 9 8 7 6 8 11 7 6 11 6 3 2 6 8
24 25 24 25 25 25 24 24 22 22 22 4 4 4 8 6 10 11 15 12 15 14 10 10 9 6 5 3 5 9 11 11 11 10 3 7 11 7 5 8 12 8 5 4 5 6 7
25 25 25 24 25 24 24 22 21 18 19 5 5 4 5 7 2 6 9 9 8 10 12 14 11 6 1 5 3 5 6 6 7 9 7 3 6 5 7 10 4 7 3 2 1 8 4
25 25 26 25 25 24 23 21 20 17 16 7 5 5 4 7 9 7 8 10 7 7 8 9 8 4 4 3 2 4 1 4 4 5 5 5 2 6 6 8 12 9 4 2 2 7 5
24 25 25 24 25 25 23 21 19 17 15 9 3 7 6 4 7 10 7 8 9 5 2 4 6 4 5 2 3 2 4 5 3 3 1 5 6 9 8 10 6 4 2 1 7 4 4
24 25 25 24 24 24 22 20 18 16 14 9 3 5 6 3 6 7 7 9 8 9 6 7 6 3 2 2 3 3 2 4 3 2 3 4 4 4 4 8 6 4 3 5 5 1 5
23 24 24 23 23 24 22 20 17 14 12 9 2 3 4 5 5 2 4 5 6 7 6 5 4 3 6 2 1 2 3 2 1 3 2 3 6 3 6 4 7 10 12 6 5 6 8
Wind_Direction
360 359 359 359 358 355 355 354 352 351 350 349 347 346 344 343 340 338 332 326 318 309 291 279 273 268 234 217 248 94 128 160 172 193 195 187 194 202 210 211 215 222 248 227 236 256 233
356 355 355 354 352 351 351 350 349 347 347 346 344 342 342 341 337 337 330 326 311 299 274 258 251 249 244 244 57 151 146 163 173 186 190 194 199 201 226 221 213 201 234 243 239 229 239
352 351 350 350 348 347 346 345 344 343 342 341 340 340 338 339 337 334 331 323 304 282 257 231 205 238 254 244 0 155 165 178 177 189 184 196 207 186 200 216 230 241 247 218 231 227 224
349 347 346 345 344 343 342 341 340 339 337 337 338 337 336 337 335 332 329 320 290 264 240 191 186 228 259 145 178 168 166 167 172 196 196 185 211 206 234 126 189 220 232 243 197 210 216
346 344 343 342 341 340 339 338 337 337 335 334 332 333 333 334 334 334 331 313 252 220 184 171 190 236 259 115 203 202 185 162 163 169 189 179 205 208 193 209 190 200 223 216 154 191 187
345 343 342 340 340 338 337 335 334 333 332 331 330 329 329 330 331 330 329 330 145 169 183 205 265 231 229 222 173 177 190 174 171 157 160 191 200 203 219 204 205 190 223 197 216 179 203
345 343 341 340 340 339 336 335 334 332 330 329 329 328 326 323 324 324 304 205 198 180 221 216 184 241 134 100 141 173 166 166 177 184 185 193 204 207 195 204 245 210 211 193 161 170 194
345 342 341 341 341 339 335 334 333 330 329 328 328 327 325 319 313 305 256 240 301 356 263 218 240 233 260 194 137 159 170 169 178 189 192 177 219 197 204 198 232 233 209 195 109 197 232
343 343 342 342 339 336 336 334 332 331 329 327 327 324 322 319 311 255 235 239 313 326 252 194 208 224 211 214 166 167 189 180 185 196 194 207 204 201 201 205 214 221 220 197 207 164 235
344 344 344 342 337 334 332 333 334 330 328 327 325 322 322 321 278 342 255 248 234 224 259 175 196 219 185 198 204 173 197 182 187 196 195 217 170 199 204 220 210 220 215 239 194 195 203
343 342 342 340 335 334 332 332 331 330 328 324 320 319 318 321 305 253 20 312 195 217 254 124 137 134 171 193 138 173 194 200 186 188 192 195 212 204 203 210 213 235 187 214 212 215 162
344 342 341 338 337 333 332 330 328 329 323 318 314 315 315 288 217 251 301 312 210 222 232 163 143 169 171 199 178 157 188 212 209 186 209 205 205 202 210 211 210 220 192 198 197 211 219
342 342 339 336 335 331 329 330 327 323 320 315 311 310 293 261 242 233 210 215 207 237 111 166 175 166 177 183 153 166 181 200 195 196 194 218 204 200 196 197 199 200 185 169 197 199 257
342 341 338 337 335 332 330 329 326 322 319 315 309 307 257 220 214 259 197 201 226 192 217 62 164 171 186 176 176 184 184 194 210 211 190 195 196 208 200 210 180 201 199 201 205 201 142
342 340 338 338 333 333 335 330 326 323 321 318 314 302 252 209 207 205 205 199 205 212 206 181 168 171 185 183 169 185 193 202 197 207 226 189 176 119 189 192 192 165 216 337 312 35 281
341 340 339 337 335 336 336 331 328 325 322 320 307 285 144 120 165 188 214 209 206 282 176 200 179 239 176 177 195 193 189 198 196 200 235 186 147 189 138 160 110 208 162 190 216 215 236
341 341 340 338 338 337 337 332 331 327 327 320 234 220 48 152 170 205 204 195 202 179 69 186 117 155 144 163 211 199 181 150 196 196 217 208 273 141 191 221 170 164 189 233 300 315 266
342 342 343 343 340 339 337 337 335 333 338 318 279 103 136 180 186 209 195 180 316 169 172 100 55 86 133 152 142 106 172 110 189 183 199 214 241 193 186 68 320 328 245 201 228 187 229
343 345 343 341 344 344 340 338 339 339 347 305 341 82 164 258 170 184 115 180 265 177 159 165 100 73 105 131 131 117 107 78 141 155 156 166 207 207 172 174 165 232 209 267 271 280 224
345 345 343 347 347 342 341 341 342 343 348 267 271 84 118 175 9 39 168 150 167 46 76 92 105 132 144 142 83 46 147 72 58 84 61 134 154 276 244 351 341 188 218 221 232 248 249
345 345 346 347 345 343 344 346 347 348 346 282 343 74 42 30 33 61 67 184 160 131 89 39 156 211 178 157 160 174 185 145 119 128 73 244 241 244 254 338 313 286 228 215 225 251 264
346 346 347 348 348 347 348 350 352 353 338 56 9 354 307 20 39 46 30 37 70 91 4 41 123 114 111 89 9 147 165 168 170 154 167 172 212 225 209 227 308 263 197 230 41 223 183
346 347 348 349 349 349 349 352 356 1 348 32 12 332 283 23 4 33 24 22 42 119 58 49 120 114 83 44 46 68 69 73 83 186 169 149 141 192 187 138 178 209 63 9 57 49 336
347 348 349 351 348 347 349 352 356 6 2 4 31 279 89 51 22 358 18 28 46 58 85 63 42 85 58 128 90 91 90 93 83 63 9 179 186 182 173 208 234 81 69 40 64 43 45
347 348 348 349 349 348 349 351 354 360 1 345 16 323 340 78 79 40 13 5 85 95 68 59 45 27 222 185 198 164 165 166 78 50 60 42 218 177 235 221 118 166 70 19 291 119 50
347 347 347 348 351 351 350 349 350 357 0 316 36 316 316 329 29 346 343 27 11 5 97 67 61 55 205 260 217 242 194 23 151 137 54 84 83 237 191 231 237 79 99 106 198 188 60
346 346 346 346 347 349 350 349 348 351 357 326 16 357 280 65 48 1 34 7 2 356 351 51 2 1 324 227 209 241 140 331 223 256 269 220 228 234 250 248 95 60 22 219 232 64 28
343 345 344 344 345 344 346 347 345 346 352 331 22 1 326 29 71 18 24 21 18 11 5 18 241 100 353 267 284 104 249 79 122 29 336 299 284 217 254 241 215 20 161 294 43 64 0
344 342 340 339 341 344 343 344 344 344 346 328 316 16 329 286 39 330 329 341 349 349 322 47 50 27 20 268 117 173 165 150 168 155 162 206 10 62 348 64 95 62 83 87 19 355 7